Tracking 19170 objects as of 23-May-2018
HD Live streaming from Space Station
objects crossing your sky now

METEOR 2-5

Track METEOR 2-5 now!
10-day predictions
METEOR 2-5 is classified as:


NORAD ID: 11605
Int'l Code: 1979-095A
Perigee: 869.6 km
Apogee: 883.5 km
Inclination: 81.2 °
Period: 102.3 minutes
Semi major axis: 7247 km
RCS: 4.8636 m2 (large)
Launch date: October 31, 1979
Source: Commonwealth of Independent States (former USSR) (CIS)
Launch site: PLESETSK MISSILE AND SPACE COMPLEX (PKMTR)
aabbcc
Your satellite tracking list
Your tracking list is empty




NASA's NSSDC Master Catalog

Two Line Element Set (TLE):
1 11605U 79095A   18142.54862209 -.00000032  00000-0 -26590-4 0  9998
2 11605  81.2128 217.8305 0009605 269.4698  90.5370 14.07067844978983
Source of the keplerian elements: AFSPC